Regional Weather Roundup
Issued by NWS Cleveland, OH

Home | Current Version | Previous Version | Graphics & Text | Print | Product List | Glossary On
Versions: 1 2 3 4 5 6 7 8 9 10 11 12 13 14 15 16 17 18 19 20 21 22 23 24 25 26 27 28 29 30 31 32 33 34 35 36 37 38 39 40 41 42 43 44 45 46 47 48 49 50
000
ASUS41 KCLE 300402
RWRCLE
OHIO REGIONAL WEATHER ROUNDUP
NATIONAL WEATHER SERVICE CLEVELAND, OH
1200 AM EDT MON MAY 30 2016

NOTE: "FAIR" INDICATES FEW OR NO CLOUDS BELOW 12,000 FEET WITH NO
SIGNIFICANT WEATHER AND/OR OBSTRUCTIONS TO VISIBILITY.

OHZ001>008-015>018-024>027-034-035-043-044-300500-
   NORTHWEST OHIO

CITY           SKY/WX    TMP DP  RH WIND       PRES   REMARKS
DEFIANCE       CLEAR     69  55  60 CALM      30.01R
FINDLAY        CLEAR     73  59  61 N7        30.00R
TOLEDO EXPRESS CLEAR     71  55  56 W6        30.00R
TOLEDO EXEC    CLEAR     71  56  58 NW8       30.00R
LIMA           PTCLDY    69  63  81 VRB5      30.01R
$$

OHZ009>014-019>023-028>033-038-089-300500-
   NORTHEAST OHIO

CITY           SKY/WX    TMP DP  RH WIND       PRES   REMARKS
CLE-HOPKINS    MOCLDY    67  61  81 S8        30.01F
CLE-LAKEFRONT  CLOUDY    67  60  78 SE16      29.98S
CUY CO. ARPT   NOT AVBL
LORAIN-ELYRIA  CLOUDY    66  59  78 S8        30.00S
ASHTABULA      CLOUDY    66  60  81 S9        30.00F
AKRON-CANTON   LGT RAIN  67  61  81 SE8       30.04F
WOOSTER        CLOUDY    66  61  84 S3        30.03F
MANSFIELD      CLOUDY    64  63  96 SE8       30.03F
YOUNGSTOWN     CLOUDY    64  61  90 SE7       30.03F
$$

OHZ042-051>053-060>062-070>072-077>081-300500-
  SOUTHWEST OHIO

CITY           SKY/WX    TMP DP  RH WIND       PRES   REMARKS
CINC-COVINGTON PTCLDY    66  65  96 SW3       30.02S
CINC-LUNKEN    CLEAR     67  67 100 CALM      30.01S FOG
HAMILTON       CLEAR     71  64  78 NW6       30.01F
DAYTON         CLOUDY    69  64  84 S5        30.03S
WRIGHT-PAT AFB CLOUDY    68  66  92 S1        30.02R
DAYTON GENERAL CLOUDY    68  62  81 CALM      30.02R
WILMINGTON     CLOUDY    67  64  90 S7        30.03S
$$

OHZ036-037-039>041-045>050-054>059-063>069-073>076-082>088-300500-
  CENTRAL AND SOUTHEAST OHIO

CITY           SKY/WX    TMP DP  RH WIND       PRES   REMARKS
COLUMBUS       CLOUDY    66  64  93 S8        30.03F
OSU AIRPORT    CLOUDY    68  62  81 S8        30.02F
BOLTON FIELD   NOT AVBL
RICKENBACK AFB NOT AVBL
NEWARK         CLOUDY    71  61  70 SW12      30.03F
MARION         CLOUDY    65  62  90 S6        30.02F
LANCASTER      CLOUDY    66  62  87 N6        30.05S
ZANESVILLE     CLOUDY    69  63  81 CALM      30.04F
NEW PHILLY     PTCLDY    67  62  84 CALM      30.05F
$$



USA.gov is the U.S. government's official web portal to all federal, state and local government web resources and services.